Simultaneous Nadir Overpasses (SNOs) Predictions

Prediction of SNOs between LANDSAT-8 and METOP-B Satellite Orbit:

Table of predicted SNOs for the next 14.0 days since TLE Epoch: 4/23/2022
Index Date (LANDSAT-8) Time (LANDSAT-8) Lat,Lon (LANDSAT-8) SZA (LANDSAT-8 ) Date (METOP-B) Time (METOP-B) Lat,Lon (METOP-B) SZA (METOP-B ) Distance(km) Time Diff (sec)
1 04/25/2022 19:21:55 -81.13, 109.61 110.07 04/25/2022 19:20:49 -81.14, 109.79 110.08 3.17 66
2 04/25/2022 20:11:20 81.15, -82.31 69.99 04/25/2022 20:11:28 81.16, -82.14 70.01 2.88 8
3 04/28/2022 14:56:08 -81.14, 176.26 110.92 04/28/2022 14:55:11 -81.13, 176.08 110.97 3.13 57
4 04/28/2022 15:45:33 81.17, -15.69 69.13 04/28/2022 15:45:50 81.16, -15.87 69.11 3.31 17
5 05/01/2022 10:30:20 -81.14,-117.23 111.76 05/01/2022 10:29:31 -81.14,-117.30 111.80 1.34 49
6 05/01/2022 11:19:45 81.17, 50.80 68.29 05/01/2022 11:20:10 81.16, 50.73 68.29 1.45 25
7 05/04/2022 06:04:33 -81.14, -50.84 112.59 05/04/2022 06:03:52 -81.14, -50.73 112.60 1.97 41
8 05/04/2022 06:53:58 81.16, 117.16 67.46 05/04/2022 06:54:31 81.17, 117.27 67.49 1.93 33
9 05/07/2022 01:38:45 -81.15, 15.78 113.35 05/07/2022 01:38:13 -81.15, 15.78 113.37 0.26 32



Historial Predications of SNOs between LANDSAT-8 and METOP-B
